Wind_Speed
150 149 149 150 150 150 150 150 150 149 147 145 144 143 140 137 134 132 132 133 134 134 132 131 129 122 118 120 123 124 125 119 108 102 100 102 105 107 107 106 105 103 100 98 98 97 97 97 98 99 98 97 95 93 89 86 85 87 88 86 85 84 82 80 80 80 79 80 81 80 79 78 78 77 76 74 73 73 72 72 72 71 71 71 70 68
150 148 149 151 153 155 155 154 153 152 150 149 148 147 145 142 138 136 137 138 139 138 135 133 132 128 124 123 123 122 123 124 120 113 105 99 98 100 102 103 104 105 104 102 100 99 99 99 100 101 101 100 99 97 95 92 88 88 89 89 87 87 84 80 81 83 82 82 83 83 81 80 79 78 76 75 75 75 74 73 73 72 72 71 70 68
143 146 151 154 155 156 156 156 156 155 154 153 152 150 148 146 144 141 141 142 143 143 140 138 137 133 128 128 129 125 121 120 121 123 119 111 103 98 97 99 101 104 106 106 104 103 102 102 102 103 102 101 101 101 100 98 95 91 91 91 91 90 87 82 82 85 85 85 85 85 83 81 79 78 77 77 76 76 75 74 74 73 73 72 71 70
132 138 147 154 157 157 156 156 156 157 158 157 157 155 151 149 149 149 148 147 148 148 145 143 143 138 132 132 132 129 126 123 120 121 122 121 117 109 101 98 99 102 104 106 107 107 107 106 105 105 104 104 103 103 103 102 100 96 93 94 94 93 90 86 84 86 88 88 87 86 84 82 80 79 78 78 77 76 76 76 76 75 75 74 74 73
123 129 137 144 151 155 157 157 157 157 158 159 161 160 158 155 154 154 155 155 155 153 149 149 150 145 137 135 135 132 130 128 125 122 119 118 120 120 115 107 101 101 103 105 106 109 111 110 109 108 107 107 105 104 104 104 104 101 98 97 97 96 95 92 88 87 88 90 89 87 85 84 82 80 79 78 78 78 78 78 78 78 78 77 77 76
116 123 129 133 138 145 150 153 155 157 158 158 159 160 160 160 160 161 160 162 163 160 155 154 155 151 143 139 138 135 133 129 126 126 124 119 118 120 122 120 113 107 104 104 106 108 111 112 113 112 111 109 108 106 107 107 106 104 102 101 100 99 98 96 93 90 90 90 89 87 85 85 84 82 81 80 80 81 82 81 81 81 80 79 78 77
110 117 123 127 130 135 138 142 146 152 155 153 154 157 158 160 162 165 167 168 168 166 163 161 161 156 147 142 141 137 135 132 129 128 127 124 121 120 121 124 125 121 113 108 107 108 110 113 115 116 115 113 111 109 110 109 108 106 104 103 102 101 100 99 97 95 93 91 89 88 86 86 86 85 84 83 84 85 84 83 83 82 80 79 78 78
104 110 115 120 124 127 129 132 137 144 147 145 147 150 152 156 158 161 167 170 171 172 170 168 168 163 151 143 143 141 138 135 132 130 128 127 126 125 123 123 127 129 127 121 114 111 112 113 115 116 117 117 115 113 112 110 109 108 107 105 104 102 102 101 100 98 95 93 91 90 88 87 88 87 87 87 87 86 85 84 83 82 81 80 80 79
99 103 108 112 115 118 121 125 131 137 138 137 140 143 145 148 148 151 157 161 168 173 173 172 174 171 158 145 142 144 143 140 137 134 132 131 131 131 129 127 126 128 131 132 127 121 117 116 116 117 116 117 116 116 114 112 111 110 109 108 106 103 102 101 102 101 98 95 93 92 90 88 88 89 89 89 88 87 86 86 85 84 82 82 82 81
98 100 103 105 107 110 114 119 124 128 129 130 134 137 140 141 141 143 146 149 158 163 167 170 173 174 167 152 144 144 145 144 142 140 138 137 136 135 135 133 131 130 131 133 135 133 128 123 120 119 116 115 115 115 115 115 113 112 111 110 108 106 104 102 102 101 101 99 96 93 91 89 89 90 90 90 89 88 88 87 86 85 84 84 84 82
98 100 101 102 103 106 110 113 116 119 121 124 128 131 134 136 137 139 140 144 150 153 156 159 162 170 171 160 151 147 146 144 144 145 145 144 142 141 141 139 138 137 135 135 136 137 137 134 129 124 119 116 114 113 113 114 115 115 114 113 111 109 107 105 103 102 101 101 98 95 93 92 92 92 92 91 90 90 90 90 88 87 87 86 86 84
97 99 101 102 103 104 105 107 110 113 115 118 120 124 129 131 133 136 138 142 145 145 146 144 148 160 165 161 153 150 150 147 144 147 149 149 149 148 147 146 144 143 141 140 138 138 139 139 137 132 126 121 117 113 112 112 113 114 115 115 114 112 110 109 107 104 103 102 100 98 96 95 94 94 94 92 91 91 92 92 91 90 89 88 87 86
96 98 101 102 103 104 104 104 106 108 111 113 115 118 123 127 130 132 134 138 140 139 137 136 142 151 156 154 145 143 151 151 145 146 149 151 154 154 154 153 151 149 146 144 142 140 138 138 138 138 135 130 124 119 115 113 111 111 112 113 114 114 113 112 110 108 106 104 102 100 99 98 97 96 94 93 92 93 93 94 93 92 90 90 89 88
94 97 100 102 103 105 105 104 104 106 108 109 111 114 118 123 126 128 129 132 134 134 132 135 142 147 149 144 132 128 140 148 146 144 147 151 154 157 159 159 156 153 150 148 145 143 140 137 136 137 138 137 134 129 123 118 114 111 110 111 112 113 114 114 113 111 109 107 105 103 101 100 100 98 96 95 94 94 94 95 94 93 92 91 91 90
95 96 99 101 102 104 105 106 106 106 107 108 109 112 115 117 120 123 124 126 128 129 130 135 141 143 142 135 125 121 127 137 140 139 142 148 152 157 160 161 161 158 155 152 149 147 144 141 138 137 137 138 139 138 134 128 122 117 113 111 111 112 113 113 113 112 111 110 108 106 104 102 101 100 98 97 96 96 96 97 96 94 93 93 92 93
95 95 98 101 102 102 104 105 107 108 108 109 109 111 111 112 115 119 120 121 124 126 128 132 135 136 135 130 124 122 122 128 132 132 134 138 144 150 155 159 162 163 161 158 154 152 149 146 143 141 139 138 139 140 139 136 132 126 121 117 114 113 112 112 112 112 112 112 111 109 108 106 105 103 101 99 98 98 99 100 99 98 96 96 95 96
95 95 97 100 102 103 103 104 105 107 109 110 111 111 111 111 114 117 117 117 121 124 124 126 127 128 129 126 122 121 123 126 129 129 129 130 132 138 144 151 157 161 164 164 162 158 155 152 149 146 144 142 141 140 139 138 136 133 129 124 121 117 114 112 111 111 112 112 112 111 110 109 108 106 104 102 101 101 101 102 101 100 99 98 98 98
96 95 95 99 102 103 105 105 104 106 108 109 110 111 113 114 115 115 115 114 118 120 118 118 121 122 124 122 119 118 120 123 127 128 128 128 128 129 132 138 145 152 158 162 164 164 161 158 155 152 150 147 145 143 141 139 137 135 133 130 128 124 120 115 112 111 112 112 112 112 112 111 110 109 107 105 104 104 104 104 103 102 101 100 99 98
97 95 94 98 101 104 106 106 105 106 108 108 108 110 113 115 116 116 116 114 114 115 112 110 113 117 119 118 115 113 114 116 121 126 127 127 127 127 127 129 133 140 147 153 158 161 163 163 160 157 155 152 149 146 144 142 140 137 135 133 131 130 126 122 118 114 113 112 112 112 112 112 112 111 110 109 107 107 105 104 103 102 101 99 98 96
98 97 94 96 101 104 105 106 106 108 110 110 108 109 111 114 115 116 117 116 113 111 108 107 109 111 112 112 111 109 110 112 116 121 124 126 127 127 127 127 127 130 136 142 148 153 157 160 161 160 158 156 154 150 147 144 142 140 139 136 134 133 131 129 125 121 117 114 113 112 113 113 112 111 110 110 109 107 105 104 102 101 98 97 96 94
99 99 96 95 99 102 103 106 108 109 111 111 109 107 109 111 113 114 115 115 114 111 107 105 106 107 107 106 106 105 105 107 111 116 120 123 125 127 128 127 127 127 128 133 139 144 148 151 154 157 158 158 156 154 151 148 145 142 141 139 138 136 135 133 131 128 124 120 117 114 113 113 112 112 110 109 108 106 104 102 101 99 98 97 96 96
100 101 98 94 96 99 102 106 110 109 110 111 111 109 109 110 112 113 113 112 114 113 108 105 104 104 103 103 103 102 101 102 105 110 115 119 121 124 127 128 128 127 126 127 131 136 141 144 147 150 152 154 155 155 154 151 149 146 143 141 140 139 138 137 135 133 130 127 123 119 116 114 113 113 112 110 109 106 105 103 102 101 100 100 100 100
102 102 99 95 94 97 100 105 109 110 109 111 111 110 110 111 111 112 110 109 112 114 110 106 104 101 100 101 101 100 99 99 100 103 109 115 118 120 124 127 128 128 127 126 127 129 133 138 141 144 146 148 150 152 153 153 151 149 146 144 142 141 140 139 139 138 136 133 130 126 122 119 116 114 112 112 111 109 107 106 105 104 104 104 104 104
104 104 100 96 95 96 98 103 108 110 110 111 111 111 112 112 110 111 109 107 111 112 108 106 103 97 96 99 99 99 99 99 98 99 103 109 114 117 119 123 126 128 128 127 126 126 128 132 135 139 142 144 145 147 149 151 151 150 148 146 144 142 141 140 140 140 139 138 135 132 129 125 121 118 115 113 112 111 110 109 108 107 106 106 106 105
105 104 101 98 97 96 98 102 108 111 112 112 112 112 112 111 111 111 109 107 108 106 105 106 103 96 94 96 97 97 98 99 99 99 101 104 109 113 116 119 122 125 127 128 127 126 126 128 130 133 136 139 141 142 144 145 147 148 148 146 145 143 141 141 141 141 141 140 139 137 134 131 127 123 120 117 114 113 111 111 110 110 109 109 108 107
104 103 101 99 98 97 98 102 107 112 114 113 112 111 111 111 112 111 109 108 106 101 102 106 102 94 92 94 96 96 97 98 99 100 100 101 104 108 112 115 118 121 124 127 128 128 127 126 128 129 132 134 137 139 140 140 141 142 143 143 143 142 141 140 140 141 141 140 139 138 136 134 132 128 125 122 119 117 115 113 112 112 111 110 110 109
103 101 98 99 98 96 97 102 106 111 115 114 111 111 111 111 111 112 110 108 105 101 102 104 100 93 90 93 97 97 97 98 99 100 100 100 101 104 106 110 114 117 121 124 127 128 128 127 127 128 129 131 133 134 136 138 138 137 136 137 138 138 138 138 138 138 138 139 138 136 135 134 133 131 129 126 123 120 118 116 115 114 113 113 112 111
100 95 93 94 95 94 96 100 104 109 113 113 111 110 110 110 110 110 109 107 106 104 101 100 99 93 89 92 98 98 99 100 99 99 100 99 98 100 102 105 110 113 117 121 124 127 128 128 128 128 128 129 130 131 132 134 135 135 134 133 132 133 133 134 134 135 135 135 135 134 133 132 131 130 129 127 125 122 120 118 117 116 115 115 114 113
97 91 86 88 89 90 93 97 101 107 110 111 111 110 110 110 109 108 106 105 107 106 100 97 98 95 90 93 98 99 101 102 100 99 99 98 98 98 99 102 107 110 113 116 120 123 126 128 129 129 129 129 130 130 130 130 131 132 132 132 131 131 130 130 131 132 132 132 132 132 132 131 130 129 127 126 124 122 120 119 118 117 116 116 115 114
95 89 85 85 85 86 89 93 98 104 108 109 110 108 108 108 106 105 103 104 106 107 102 98 99 97 93 93 97 101 102 102 99 97 96 97 98 98 99 101 104 107 110 112 115 119 123 127 129 130 130 130 131 131 130 129 128 129 130 130 130 130 129 129 129 129 130 130 131 131 130 129 128 127 126 125 123 122 120 119 118 118 117 116 115 115
92 89 86 84 82 81 84 89 95 100 105 107 106 105 105 105 104 103 103 106 109 109 104 100 99 97 95 96 96 100 103 101 98 96 96 96 98 99 99 100 102 104 106 110 113 115 119 123 127 130 131 132 132 132 131 130 128 128 128 128 128 128 127 127 128 128 128 129 129 130 130 129 128 127 125 124 122 121 120 119 119 118 117 116 115 114
90 89 86 83 80 76 78 85 92 97 102 103 100 100 101 103 104 105 107 108 110 108 103 99 97 97 98 97 95 98 103 103 99 97 97 97 97 98 98 99 100 101 103 107 110 112 114 118 123 128 131 132 133 133 133 132 130 128 127 127 128 128 127 126 126 126 127 127 127 127 128 128 127 126 125 123 121 120 119 119 118 117 116 115 115 114
89 87 84 82 78 73 75 82 88 94 99 96 92 93 98 102 104 106 107 107 107 106 101 97 96 97 98 98 96 98 102 103 100 98 97 96 97 97 98 98 100 100 101 104 108 110 112 115 119 124 128 132 134 135 135 134 132 130 128 127 126 127 127 127 126 125 125 125 126 126 126 126 126 125 124 122 120 119 118 117 116 115 115 114 113 113
87 86 83 80 76 72 74 80 86 92 92 87 85 90 96 99 101 103 104 104 105 103 99 95 96 97 97 97 97 98 100 101 102 100 96 95 96 97 98 99 100 100 101 102 106 108 110 113 117 121 125 129 133 135 136 136 134 133 131 129 127 126 126 126 126 126 125 125 124 124 125 125 125 124 123 121 120 119 117 116 115 114 113 112 111 110
85 85 82 79 77 75 74 78 84 85 81 79 82 88 92 95 98 101 102 102 104 103 98 96 97 97 96 96 97 97 98 99 102 100 96 96 96 97 98 98 99 101 101 103 105 106 108 111 115 118 121 125 129 133 135 136 136 135 134 133 131 128 126 125 125 126 126 125 125 124 123 123 123 122 122 121 120 119 118 117 116 114 113 111 110 109
83 83 81 77 76 76 76 77 78 76 74 77 81 84 87 92 96 99 100 100 102 102 98 95 94 93 91 92 95 97 97 97 99 100 99 97 96 95 96 98 99 101 103 103 104 105 106 109 112 116 118 121 124 128 131 134 136 137 136 135 134 132 129 127 125 124 124 124 124 124 123 122 121 121 120 119 119 118 118 117 116 115 114 113 112 110
81 82 80 77 74 74 75 75 75 72 70 72 75 78 83 89 93 97 99 99 100 99 94 91 90 89 88 89 92 95 95 94 97 101 102 98 94 94 96 97 99 101 103 103 103 104 105 107 109 113 115 117 119 122 125 129 134 137 138 137 137 135 132 130 127 126 124 123 123 123 122 121 120 119 118 117 116 116 116 116 115 114 114 113 112 111
82 82 80 77 74 72 72 71 70 69 65 66 71 77 84 90 93 96 96 94 95 95 92 89 88 88 88 88 90 91 92 93 96 101 103 98 93 94 96 97 99 100 101 102 103 103 104 105 106 108 111 114 116 118 121 125 130 135 138 139 138 137 136 133 131 128 126 124 124 123 122 121 120 119 117 115 114 113 113 113 113 113 113 112 112 111
83 83 81 77 73 70 70 69 67 65 64 66 71 79 87 91 92 93 93 90 89 92 91 89 89 89 89 88 86 86 89 91 95 99 100 96 93 94 96 96 97 99 99 101 103 103 103 103 104 105 107 111 113 116 118 121 125 131 136 139 139 138 138 137 134 132 129 127 125 124 123 122 121 120 118 116 114 113 112 111 110 110 110 110 110 109
83 83 82 79 73 68 69 69 66 65 66 68 74 83 90 91 90 90 87 82 84 91 93 91 89 88 86 83 80 82 85 88 91 94 95 94 94 94 94 94 95 97 98 100 102 103 103 102 103 104 106 108 110 113 116 118 121 125 130 136 139 139 139 139 138 135 133 130 128 127 125 123 122 121 119 118 116 115 113 112 110 109 109 108 108 107
83 83 82 80 74 69 69 68 66 67 68 70 77 86 91 91 89 86 81 78 85 94 95 90 84 82 79 76 76 79 83 84 86 89 92 94 94 92 91 92 93 95 97 99 101 103 103 102 102 104 105 106 108 110 113 116 118 121 124 129 135 139 140 140 139 138 136 134 132 130 127 125 124 122 121 119 118 117 115 113 112 111 110 109 108 107
82 81 80 80 76 71 70 68 66 66 68 72 80 89 91 89 85 82 80 83 90 95 91 83 77 74 72 72 75 80 82 82 83 86 89 92 93 92 90 90 92 93 95 97 100 103 103 103 103 103 104 106 107 107 109 112 115 118 119 122 128 135 140 140 140 140 139 137 135 133 130 128 127 125 123 121 120 119 117 116 114 113 112 111 109 108
80 80 79 77 74 71 71 67 63 65 70 77 85 89 87 85 83 83 85 87 89 90 86 79 75 73 72 74 78 80 81 81 81 83 86 88 90 91 89 88 89 91 93 95 98 101 103 103 103 104 104 105 106 107 107 109 111 114 116 118 121 128 136 140 141 141 140 139 138 136 134 132 130 128 126 124 122 121 119 118 117 115 114 112 111 110
77 78 76 74 73 74 72 66 63 69 74 79 84 85 83 84 86 86 86 86 86 86 84 79 76 75 73 74 77 78 79 80 80 81 83 86 88 89 88 88 88 89 92 94 96 99 102 103 103 104 104 105 106 106 107 107 108 110 112 115 117 121 128 135 139 141 141 140 140 139 137 135 133 131 129 127 125 123 122 120 119 118 116 115 113 112
74 75 75 74 75 75 72 65 65 70 72 74 80 83 83 85 87 87 86 85 84 82 80 78 77 75 73 73 74 75 77 79 80 80 81 83 84 86 88 88 89 89 90 92 95 97 100 102 104 104 105 105 106 106 106 106 107 108 109 111 113 116 121 128 134 139 142 142 141 140 139 138 136 134 132 130 128 126 125 123 122 121 119 117 116 114
72 74 76 76 73 72 69 64 63 67 70 73 79 83 85 86 86 87 86 85 83 80 78 78 78 76 73 72 73 74 76 78 79 80 80 80 81 83 86 88 89 89 89 90 92 95 98 101 103 104 105 105 105 106 106 106 106 107 108 109 110 112 115 120 127 133 139 142 143 142 141 140 139 137 136 134 132 130 128 126 124 123 122 120 119 117
71 73 75 73 70 68 66 63 63 67 71 74 78 82 85 86 86 85 85 84 83 80 77 77 78 76 74 73 73 73 74 76 77 78 78 79 79 81 84 86 88 89 89 89 91 93 95 98 101 103 105 105 105 106 106 106 106 106 107 108 109 109 112 115 120 126 132 138 142 143 143 142 141 140 139 137 135 133 131 129 127 125 124 123 121 120
69 71 72 70 67 66 65 64 64 66 68 73 78 80 84 85 85 84 84 83 82 79 77 77 78 77 76 74 73 73 74 75 75 75 76 77 78 79 82 84 85 87 88 88 89 90 93 97 99 102 104 105 106 106 106 106 106 106 107 108 109 109 110 112 116 120 125 131 137 141 144 144 143 142 141 140 138 136 134 132 130 128 127 126 124 123
67 68 67 66 65 65 65 66 66 65 67 72 77 80 82 83 83 83 83 82 81 78 76 76 77 77 77 76 76 76 76 75 75 74 74 75 75 77 79 82 84 86 87 88 88 89 91 94 98 101 104 105 106 106 106 106 106 107 107 108 109 110 111 111 113 116 120 125 130 135 141 144 144 144 143 142 141 139 137 135 134 132 130 128 127 125
64 64 63 63 63 64 66 67 67 66 67 70 74 78 81 80 80 81 81 82 82 79 76 75 77 77 78 78 78 78 77 75 75 75 75 74 74 74 76 79 82 84 85 87 88 89 89 91 95 98 102 104 106 107 106 106 107 107 108 109 109 110 112 112 113 114 116 120 124 129 134 140 144 145 145 144 143 142 140 139 137 135 133 131 130 128
61 61 62 62 62 64 66 66 66 66 67 68 71 75 78 78 78 79 80 81 81 80 77 77 77 78 79 80 80 78 77 75 75 75 75 74 73 73 74 76 78 81 83 86 88 88 89 90 93 96 99 103 105 107 107 107 107 108 109 110 111 111 112 113 114 114 115 117 120 124 128 134 139 144 146 146 145 144 143 142 140 138 137 135 133 131
Wind_Direction
242 242 243 243 243 242 241 240 240 240 240 240 240 240 239 238 239 239 239 239 239 240 239 239 239 236 235 236 238 239 241 241 239 239 242 244 245 245 246 247 247 246 245 245 245 246 246 246 247 247 248 249 250 251 252 252 251 249 248 248 248 249 249 250 251 252 252 252 253 254 254 254 255 257 258 260 261 263 265 268 271 272 272 273 274 274
243 243 243 243 243 243 243 242 242 241 241 241 241 241 241 240 240 241 241 241 240 240 240 239 239 237 235 236 237 237 239 241 241 240 239 241 244 246 246 247 247 247 245 245 245 246 246 246 247 247 247 247 248 250 251 251 251 250 249 248 248 250 251 251 251 252 253 253 253 253 253 253 254 257 259 260 262 264 266 269 271 270 270 271 271 272
243 243 243 243 243 243 244 244 244 244 243 243 242 242 242 242 242 242 242 242 242 241 240 239 239 237 235 236 237 237 237 238 240 241 241 240 241 243 246 247 247 247 246 245 245 245 246 246 247 247 247 247 247 248 249 250 250 250 249 248 248 249 250 251 252 252 253 252 251 251 253 254 255 258 259 261 262 265 267 269 268 267 267 268 269 271
243 243 243 243 243 243 244 244 245 245 245 244 244 243 243 243 243 244 244 244 243 242 241 240 240 238 236 236 236 237 238 238 238 240 241 242 242 242 243 245 246 247 247 247 246 245 245 245 246 247 247 247 247 247 247 248 249 250 249 248 248 248 249 250 252 252 252 252 252 253 254 256 257 258 260 261 263 264 266 265 265 264 265 266 268 270
244 244 244 244 244 244 244 244 245 245 245 245 245 245 244 244 244 244 245 245 245 244 242 241 240 239 237 236 237 237 237 238 238 239 240 241 242 243 243 243 244 245 246 247 246 246 245 245 245 246 247 247 247 247 247 247 248 248 249 249 248 248 248 250 252 253 253 253 254 255 256 257 258 258 259 261 262 262 262 262 262 263 265 266 269 271
244 244 244 244 244 244 244 244 245 245 246 246 246 246 246 245 245 245 245 245 246 245 244 243 242 239 237 237 237 237 237 237 238 240 240 240 241 243 244 244 244 244 245 246 246 246 246 246 245 245 245 246 246 247 247 247 247 248 248 249 249 249 250 251 252 254 254 254 254 255 256 257 258 258 259 260 260 260 261 262 263 265 266 268 270 273
243 244 244 244 245 245 245 245 245 245 245 246 247 247 247 246 246 246 246 246 246 246 245 245 244 241 238 237 238 238 238 238 238 239 241 241 241 241 243 244 244 244 244 244 245 245 246 246 245 245 245 245 245 245 246 247 248 248 249 249 250 250 251 252 253 255 255 255 255 256 256 257 258 260 260 261 260 261 262 264 265 266 267 268 270 272
243 244 244 244 244 245 245 246 246 246 245 245 246 247 247 247 246 246 246 246 246 246 245 246 246 244 240 238 239 240 239 239 239 239 241 242 242 242 242 242 244 244 244 244 244 244 245 246 246 245 245 245 245 244 245 246 247 248 249 250 251 251 252 253 254 255 256 256 256 256 256 257 258 260 261 261 261 262 264 265 266 266 266 267 268 270
244 244 244 244 244 244 245 245 245 246 246 245 245 246 246 246 246 246 246 247 247 246 246 246 247 247 243 240 240 241 241 240 240 240 241 242 242 243 242 242 243 244 244 244 244 244 244 245 246 246 246 246 246 245 245 246 247 248 249 250 251 252 252 253 254 254 255 256 256 256 256 257 258 259 260 261 262 264 265 266 266 266 266 266 267 269
245 244 245 245 245 245 244 244 245 246 246 246 246 246 246 246 246 246 246 246 247 246 246 246 246 247 246 242 241 241 242 241 241 241 241 241 242 243 243 243 243 243 244 244 244 244 244 244 245 246 246 246 246 246 246 246 246 247 248 249 250 251 252 252 253 253 254 254 255 256 256 257 257 258 259 261 262 263 264 265 265 265 265 265 266 268
246 246 246 246 246 245 245 245 245 246 246 246 246 246 246 246 246 246 246 246 246 246 246 246 246 247 246 244 242 242 242 242 241 241 241 241 242 242 243 243 243 243 243 243 243 244 244 244 245 245 246 246 247 247 247 247 246 247 247 248 249 250 251 252 253 253 253 254 255 255 256 257 257 258 259 260 262 263 263 263 264 264 264 264 265 267
245 246 247 247 246 246 246 246 246 246 246 245 246 246 246 246 246 246 246 246 246 247 247 247 247 247 246 244 243 242 242 242 242 241 241 241 242 242 243 243 243 242 242 242 243 243 243 244 244 245 246 246 247 247 247 247 247 247 247 248 248 249 250 251 252 253 253 254 254 255 255 256 257 258 259 260 261 262 262 262 263 263 264 264 265 267
243 244 245 246 247 248 247 246 246 247 246 246 246 246 246 246 246 246 246 246 247 247 247 247 246 247 246 244 242 242 243 243 242 241 241 241 241 242 243 243 243 242 242 242 242 243 243 244 244 245 246 247 247 247 247 248 248 248 248 248 248 249 249 250 251 252 253 253 254 255 255 255 256 257 258 259 260 260 261 262 262 263 263 264 264 266
244 244 244 245 246 247 248 247 247 247 247 247 246 246 246 246 246 246 246 247 247 247 246 245 245 246 246 245 242 241 243 243 242 242 242 241 241 241 242 243 243 243 243 243 243 243 244 244 244 245 245 246 247 247 247 248 248 248 248 249 249 249 249 250 250 251 252 253 253 254 254 255 255 256 257 257 258 259 259 260 261 262 262 263 263 265
246 246 247 246 244 245 246 247 247 248 248 248 247 247 247 247 247 247 246 246 247 246 245 245 245 246 247 246 244 241 241 242 242 242 242 242 241 241 241 242 243 243 243 243 243 244 244 244 244 245 245 246 246 247 247 247 248 248 248 248 249 249 249 250 250 250 251 252 252 253 253 254 255 255 256 256 257 257 258 259 260 260 261 262 263 265
246 246 248 249 247 246 245 245 246 247 247 248 248 248 248 248 248 248 247 246 246 246 245 245 246 247 248 247 244 242 240 241 242 242 241 242 242 242 241 242 242 243 243 243 243 243 244 244 244 245 245 245 246 246 247 247 248 248 248 248 249 249 250 250 250 250 251 251 252 252 253 254 254 255 255 256 256 257 257 258 259 260 261 262 263 265
247 246 247 249 250 249 247 246 246 246 247 247 248 248 249 249 248 248 247 247 247 246 245 245 246 247 247 246 244 242 241 240 241 241 241 242 242 242 242 241 241 242 242 243 243 243 243 244 244 244 244 245 246 246 246 246 247 247 248 249 249 249 249 250 250 250 251 251 251 252 252 253 254 254 255 255 256 256 257 258 259 260 262 263 264 266
247 246 246 248 250 250 250 248 247 247 247 247 247 247 248 249 249 249 248 247 247 247 246 246 246 247 247 246 244 242 241 240 241 241 241 241 241 242 242 242 241 241 242 242 242 243 243 243 243 243 244 244 245 246 247 247 246 246 247 248 249 250 250 250 250 250 250 251 251 251 252 252 253 254 254 254 255 256 257 259 260 261 263 264 265 266
249 246 245 247 248 249 250 250 250 249 248 247 246 247 247 248 248 249 250 248 248 248 247 246 246 246 246 246 244 242 241 240 240 241 240 240 240 240 241 241 241 241 241 241 241 242 242 243 243 243 243 243 244 245 246 246 247 246 246 246 247 249 250 250 250 250 250 250 251 251 252 252 253 253 254 254 255 256 257 259 260 262 263 264 265 266
251 249 245 245 247 248 249 250 250 250 250 248 247 246 247 248 248 249 250 250 249 249 248 246 246 246 246 245 244 242 241 240 240 240 240 239 239 239 239 240 241 241 241 241 241 241 241 242 242 242 242 243 243 244 244 245 246 247 247 246 246 247 249 250 251 251 250 250 250 251 251 252 252 253 254 254 255 256 257 258 259 261 261 262 262 263
253 251 247 245 247 248 249 249 249 249 250 250 249 248 248 248 249 249 249 250 250 249 248 247 246 246 246 245 244 243 241 240 239 240 240 239 238 238 238 238 239 240 240 241 241 241 241 241 241 242 242 242 242 243 244 244 245 246 246 247 247 247 247 249 250 251 251 251 250 250 251 251 252 252 253 253 254 255 256 257 257 258 259 260 260 261
254 253 250 247 247 248 249 250 250 249 249 251 251 250 249 249 249 249 249 250 251 250 249 247 246 246 246 246 246 244 242 240 239 239 239 239 238 237 237 237 237 238 239 240 240 241 241 241 241 241 241 241 242 242 243 244 244 245 245 246 246 247 247 248 249 250 251 251 251 251 251 251 251 252 252 253 254 254 255 255 256 256 257 258 259 259
255 254 252 250 248 248 249 250 251 251 250 250 251 251 251 250 249 249 248 248 249 250 249 247 246 245 245 246 246 245 244 242 240 238 238 239 238 237 237 236 236 236 237 238 239 240 241 241 241 241 241 241 241 241 242 243 244 245 245 245 246 246 247 248 248 249 249 250 251 252 252 251 251 251 252 252 253 254 254 255 255 256 256 257 258 259
255 255 253 252 250 249 249 250 252 252 251 250 250 250 250 251 251 250 249 248 248 249 249 249 247 245 244 245 245 245 245 243 241 239 238 238 238 238 237 236 236 236 236 237 238 239 240 241 241 241 241 241 241 241 241 242 243 244 244 245 245 245 246 247 247 248 248 249 250 251 252 252 252 251 251 251 252 253 253 254 254 255 255 256 257 258
255 255 254 252 251 249 249 250 251 252 251 250 250 250 250 250 251 251 251 249 248 248 249 249 248 245 243 244 244 244 244 244 243 240 238 237 238 238 237 237 236 236 235 236 237 238 239 240 241 241 241 241 241 241 241 241 242 243 243 244 244 245 245 246 246 247 247 248 248 249 250 251 252 252 251 251 251 251 252 253 253 254 254 255 256 257
253 253 252 252 250 249 249 249 250 251 252 251 250 250 250 250 251 251 251 251 249 248 248 249 248 245 243 243 243 242 242 243 243 242 240 238 237 237 237 237 236 236 235 235 235 236 237 239 240 241 241 241 241 241 241 241 241 242 242 243 243 244 244 244 245 245 246 246 247 247 248 249 250 251 251 251 251 251 252 252 253 253 254 255 256 256
253 251 251 251 250 249 248 249 249 251 252 252 251 251 251 251 251 251 251 251 251 249 248 248 248 245 243 243 243 242 240 240 241 242 241 239 237 237 237 237 237 236 236 235 234 234 236 237 239 240 241 241 241 241 241 241 241 241 242 242 242 243 243 243 243 244 245 245 246 246 246 247 248 249 250 251 251 251 251 252 252 253 254 255 255 256
255 253 251 251 251 250 249 248 249 250 251 252 252 251 251 251 251 251 251 251 252 250 248 248 248 246 242 242 242 241 239 239 238 239 240 240 239 237 237 237 237 236 236 235 235 234 234 235 237 238 240 241 242 241 241 241 241 241 241 241 242 242 242 242 242 243 243 244 244 245 245 246 246 247 248 249 250 251 251 251 252 252 253 254 254 255
258 256 253 251 250 249 249 248 248 249 250 251 251 251 251 251 251 251 252 252 252 251 250 249 249 246 242 241 242 241 239 238 237 237 239 239 239 238 236 236 236 236 236 235 235 234 233 233 235 236 238 240 241 242 241 241 241 241 242 242 242 242 242 242 242 242 242 243 243 244 244 244 245 246 246 247 248 249 250 250 251 251 252 253 253 254
260 259 256 252 250 247 248 248 248 248 249 250 250 251 251 252 252 252 252 251 251 251 249 248 247 246 243 240 241 242 241 239 237 237 237 238 239 238 236 236 236 236 236 236 235 234 234 233 233 234 236 238 240 242 242 241 241 241 241 241 242 242 242 242 242 242 242 242 243 243 243 244 244 245 245 246 246 247 248 249 249 250 251 252 252 253
261 260 258 255 251 247 247 248 248 248 248 248 249 250 251 252 252 252 251 250 249 249 247 246 245 245 243 241 240 241 242 241 238 236 235 236 237 238 237 236 236 235 236 236 235 234 234 234 233 233 234 236 238 240 241 242 241 241 241 241 241 242 242 242 242 242 242 242 242 243 243 244 244 244 245 245 246 246 247 248 248 249 250 251 251 252
261 260 259 257 254 250 248 248 248 248 249 249 248 249 250 251 250 249 248 248 248 248 247 245 245 244 243 242 239 240 242 241 238 235 234 233 235 237 238 238 237 236 235 236 236 235 234 234 234 233 233 234 236 238 240 241 242 241 241 240 240 241 241 241 242 242 242 242 242 243 243 244 244 244 244 245 245 246 246 247 248 249 249 250 251 252
262 262 260 258 256 252 249 249 248 248 249 249 249 249 249 249 249 249 249 249 249 248 247 246 245 244 243 242 240 239 240 241 240 237 234 232 233 234 237 238 238 237 236 236 236 236 235 234 234 233 233 232 234 236 238 240 241 241 241 241 241 240 240 240 241 242 242 242 242 243 243 244 244 244 244 244 245 245 246 247 248 249 249 250 251 251
263 263 262 261 258 254 250 249 248 247 248 249 249 249 248 249 249 250 250 250 250 249 248 246 245 243 242 241 241 240 239 240 241 238 235 233 232 232 234 236 237 237 236 235 235 235 235 234 234 233 233 232 232 234 236 238 239 241 241 242 241 241 240 240 240 241 241 242 243 243 243 243 244 244 244 244 245 245 246 247 247 248 249 250 250 251
262 262 262 262 260 256 252 249 248 248 249 250 250 249 249 249 249 250 250 250 250 250 248 246 244 243 242 241 241 240 239 239 241 240 237 234 232 231 232 234 235 237 237 236 235 235 235 234 234 234 233 233 232 232 234 236 238 239 241 242 242 241 241 241 240 240 241 241 242 243 243 243 244 244 244 245 245 245 246 247 247 248 248 249 250 250
259 260 260 258 257 256 254 251 250 249 249 250 250 249 249 249 249 249 249 249 249 249 248 247 246 244 243 241 241 241 240 239 240 241 239 236 233 231 231 232 234 236 236 236 236 235 235 234 235 235 234 234 233 232 232 234 237 239 239 241 242 242 241 241 241 241 241 241 242 242 243 243 243 244 244 245 245 245 246 246 247 248 248 249 249 250
255 256 257 256 254 253 252 252 251 249 249 251 252 252 250 249 248 248 248 248 249 250 249 249 248 246 244 242 241 241 240 239 240 241 240 237 234 232 231 231 232 234 236 236 236 236 236 235 235 235 236 235 234 234 232 232 235 237 239 239 240 242 242 242 241 241 241 241 242 242 243 243 244 244 244 244 245 245 245 246 246 247 248 248 249 249
252 253 253 253 252 251 251 251 250 250 251 253 254 253 250 248 247 247 248 248 249 251 251 250 248 247 244 242 240 239 239 239 239 240 241 238 235 233 232 231 231 232 234 236 237 236 236 236 236 236 236 236 236 235 234 232 232 235 237 238 239 240 241 242 242 242 242 242 242 242 242 243 244 244 244 244 245 245 245 245 246 246 247 248 248 249
251 252 252 252 251 250 251 250 249 250 251 252 253 252 250 248 247 247 248 248 249 251 251 250 248 246 244 242 240 239 238 238 238 239 240 239 236 234 233 231 231 231 233 235 237 237 236 236 237 236 236 236 236 236 235 234 232 232 235 237 238 239 240 241 242 242 241 242 242 242 242 242 243 243 244 245 245 245 245 246 246 246 247 247 248 249
252 252 253 254 252 250 249 249 247 247 248 249 250 250 250 249 248 247 247 248 249 249 250 248 247 246 245 243 241 240 239 238 238 239 240 240 238 235 234 232 231 231 232 233 236 237 237 236 236 236 236 236 236 236 236 235 234 233 233 235 237 238 239 240 241 241 241 241 242 242 242 242 242 242 243 244 244 245 245 246 246 247 247 247 248 249
254 253 254 256 254 251 249 249 247 246 246 246 247 249 249 249 249 249 248 247 246 247 248 249 248 247 246 244 242 241 240 238 237 238 239 240 239 237 235 233 232 231 231 232 234 236 237 236 236 236 236 236 236 236 236 236 235 235 233 233 235 237 238 239 240 241 241 241 241 242 242 242 242 242 242 242 243 244 244 245 246 247 247 248 248 249
254 254 254 255 255 253 251 249 247 246 246 246 247 249 250 250 251 251 249 246 245 247 250 252 252 250 248 245 243 242 241 240 238 237 238 239 239 238 236 234 233 231 230 231 233 235 236 237 236 236 236 236 236 236 236 236 236 236 235 234 233 235 237 239 239 240 241 241 242 242 242 242 242 242 242 242 242 242 243 244 244 245 246 247 248 248
253 254 254 254 254 253 251 250 247 245 245 245 246 247 249 251 251 249 248 247 247 248 251 252 252 251 247 244 243 242 242 241 239 238 238 238 239 239 238 235 233 232 231 230 231 233 235 236 236 236 236 236 237 236 236 236 236 236 236 235 234 234 235 237 239 239 240 240 241 242 242 242 242 242 242 242 242 242 242 242 243 244 244 245 246 247
253 254 254 253 252 251 249 246 243 241 242 244 246 248 250 251 251 250 249 249 249 249 250 251 252 251 248 244 243 243 242 242 240 238 237 237 238 238 238 237 235 233 231 231 230 231 234 235 236 236 236 236 236 237 236 237 237 236 236 236 235 234 234 236 237 239 240 240 240 241 242 242 242 242 242 242 242 242 242 242 242 243 243 244 244 245
252 253 252 251 250 250 249 245 241 241 243 245 248 251 251 251 252 253 253 253 252 252 252 253 254 253 250 247 245 244 243 242 241 240 238 237 237 237 238 238 237 235 232 231 230 230 232 233 235 235 235 235 236 236 237 237 237 237 237 236 236 235 235 235 236 237 239 240 240 240 241 242 242 242 242 242 242 242 242 242 242 242 242 243 243 244
251 251 251 251 250 251 250 246 242 242 244 245 246 248 250 250 250 252 253 254 254 254 254 255 255 254 252 250 247 245 243 242 242 241 239 238 237 237 237 238 238 236 234 232 231 230 231 232 233 235 235 235 235 236 236 236 236 237 237 237 236 236 235 235 235 236 237 238 240 240 240 241 242 242 242 242 242 242 242 242 242 242 242 242 243 243
251 252 253 253 252 252 251 247 242 240 242 244 245 247 249 250 250 251 252 253 254 254 254 254 255 255 253 251 249 247 246 244 243 242 240 239 237 236 237 237 237 237 236 234 232 231 230 231 232 234 235 235 235 235 236 236 236 236 237 237 237 236 235 235 236 236 236 237 238 239 240 240 241 241 242 242 242 243 243 242 242 242 242 242 242 242
252 253 253 254 254 253 251 247 243 240 241 244 246 247 248 250 250 251 252 252 253 253 253 254 255 255 255 254 252 250 248 246 245 243 241 240 238 236 236 237 237 237 237 236 234 232 230 230 231 233 234 235 235 235 235 235 235 236 236 237 237 236 236 235 235 236 236 236 236 238 239 240 240 241 241 242 242 242 243 243 243 242 242 242 242 242
253 254 254 254 253 252 250 247 245 242 239 242 246 247 248 248 250 251 251 252 253 253 253 254 255 256 256 256 254 252 250 249 247 246 243 241 239 237 235 235 236 237 237 237 235 233 231 230 230 231 233 234 235 235 235 235 235 235 236 236 236 237 236 235 235 235 236 236 236 236 237 238 239 240 240 241 241 242 242 243 243 243 243 242 242 242
254 254 254 254 252 251 250 249 247 245 241 241 245 248 249 249 250 251 252 253 254 254 253 253 254 255 256 256 255 253 252 251 250 248 247 245 242 239 236 235 234 235 236 237 237 235 233 231 230 230 232 233 234 235 235 235 235 235 235 236 236 236 236 236 235 235 235 235 236 236 236 237 238 239 240 240 240 241 242 242 243 243 243 243 243 243
254 254 253 252 251 250 250 249 248 247 245 243 244 247 249 250 249 250 251 252 253 253 253 252 252 253 253 254 254 254 253 252 251 250 249 247 245 242 239 237 235 234 235 236 237 236 235 233 232 231 231 232 234 235 235 235 234 235 235 236 236 236 236 236 236 235 235 235 235 235 235 236 236 238 239 240 240 240 241 241 242 242 243 243 243 243
Height
10508 10516 10522 10526 10527 10527 10527 10528 10532 10539 10544 10547 10552 10555 10567 10578 10584 10595 10596 10593 10592 10590 10601 10614 10623 10644 10652 10642 10641 10647 10647 10653 10669 10678 10680 10684 10687 10692 10699 10705 10712 10718 10724 10723 10721 10727 10728 10729 10733 10734 10737 10740 10743 10747 10748 10751 10753 10755 10756 10758 10763 10763 10763 10766 10768 10771 10774 10775 10777 10780 10782 10783 10781 10783 10787 10790 10792 10793 10794 10796 10798 10798 10798 10799 10800 10801
10495 10503 10507 10509 10511 10511 10513 10516 10521 10529 10534 10537 10539 10544 10555 10565 10577 10586 10580 10578 10580 10578 10590 10602 10603 10622 10639 10633 10628 10637 10641 10647 10662 10669 10672 10678 10680 10685 10692 10697 10701 10706 10711 10712 10714 10717 10716 10719 10721 10722 10726 10730 10733 10736 10736 10739 10742 10743 10746 10750 10753 10752 10754 10760 10760 10760 10764 10767 10768 10770 10773 10775 10776 10778 10782 10784 10785 10787 10789 10791 10792 10792 10792 10793 10794 10795
10483 10488 10490 10491 10494 10497 10500 10503 10508 10516 10520 10523 10526 10533 10543 10555 10567 10569 10563 10564 10564 10560 10575 10587 10583 10600 10623 10620 10616 10626 10635 10644 10652 10653 10661 10670 10673 10679 10685 10688 10690 10692 10696 10700 10704 10705 10705 10707 10708 10709 10714 10719 10722 10723 10725 10728 10730 10732 10736 10740 10741 10741 10745 10750 10752 10752 10755 10758 10758 10761 10765 10768 10772 10774 10776 10778 10779 10781 10784 10785 10785 10786 10786 10787 10788 10789
10470 10473 10473 10474 10479 10483 10486 10489 10493 10498 10503 10506 10511 10516 10530 10545 10547 10546 10550 10548 10540 10541 10560 10571 10562 10579 10607 10607 10606 10619 10627 10635 10639 10639 10649 10660 10664 10672 10676 10677 10679 10681 10683 10686 10690 10692 10692 10694 10696 10697 10701 10704 10708 10711 10714 10716 10718 10721 10725 10728 10730 10731 10734 10739 10743 10745 10746 10747 10749 10754 10759 10762 10766 10769 10771 10772 10774 10776 10777 10777 10777 10778 10779 10780 10782 10782
10457 10456 10457 10459 10462 10466 10468 10473 10477 10480 10484 10488 10492 10497 10512 10528 10524 10524 10532 10524 10517 10526 10542 10551 10542 10557 10592 10595 10595 10609 10614 10621 10630 10632 10641 10650 10655 10660 10663 10666 10669 10670 10671 10673 10676 10678 10678 10681 10683 10685 10687 10690 10695 10701 10702 10703 10706 10710 10713 10716 10718 10720 10724 10729 10735 10738 10738 10739 10743 10748 10753 10755 10759 10763 10764 10767 10769 10768 10767 10767 10768 10770 10771 10773 10774 10775
10443 10439 10442 10444 10444 10447 10452 10459 10461 10459 10465 10471 10477 10484 10495 10505 10502 10503 10509 10501 10497 10506 10522 10529 10515 10534 10577 10582 10581 10597 10602 10613 10626 10625 10630 10640 10645 10648 10650 10654 10656 10658 10660 10661 10663 10664 10664 10667 10669 10671 10674 10676 10682 10688 10688 10689 10694 10699 10703 10705 10709 10712 10716 10722 10726 10729 10731 10733 10738 10743 10746 10748 10751 10755 10758 10760 10760 10757 10757 10759 10761 10762 10764 10767 10768 10769
10430 10424 10426 10429 10429 10431 10436 10444 10442 10437 10447 10459 10467 10468 10469 10478 10483 10485 10487 10479 10475 10488 10508 10506 10487 10512 10563 10573 10573 10589 10595 10605 10617 10615 10619 10630 10633 10636 10640 10641 10640 10642 10647 10648 10649 10651 10650 10651 10652 10655 10659 10662 10668 10673 10674 10678 10685 10691 10695 10697 10702 10706 10710 10715 10718 10721 10724 10729 10733 10737 10740 10741 10742 10746 10750 10751 10748 10747 10750 10752 10754 10756 10758 10760 10762 10762
10417 10411 10410 10412 10415 10419 10423 10427 10424 10419 10430 10450 10452 10441 10445 10458 10463 10465 10465 10457 10461 10478 10489 10483 10471 10491 10542 10572 10573 10578 10587 10594 10604 10608 10613 10619 10619 10621 10626 10626 10625 10627 10629 10633 10636 10639 10637 10635 10636 10639 10645 10649 10656 10662 10665 10671 10678 10682 10686 10690 10695 10699 10704 10708 10710 10713 10718 10722 10727 10730 10733 10735 10736 10739 10740 10738 10738 10739 10743 10746 10747 10750 10752 10754 10755 10756
10401 10399 10396 10396 10403 10409 10410 10408 10406 10404 10417 10436 10431 10420 10432 10441 10439 10445 10445 10440 10450 10460 10460 10468 10472 10471 10515 10572 10573 10562 10575 10582 10591 10603 10604 10604 10603 10604 10610 10611 10612 10613 10613 10615 10620 10624 10623 10622 10622 10624 10631 10638 10645 10653 10657 10664 10670 10673 10678 10682 10687 10692 10696 10700 10701 10705 10710 10714 10718 10722 10726 10730 10730 10731 10730 10728 10730 10733 10736 10739 10740 10742 10745 10747 10748 10749
10386 10386 10384 10386 10390 10393 10393 10391 10392 10395 10405 10415 10410 10409 10420 10418 10418 10427 10426 10427 10432 10430 10437 10462 10473 10459 10487 10554 10566 10551 10561 10569 10580 10590 10585 10587 10590 10587 10592 10594 10597 10599 10597 10598 10601 10605 10607 10608 10610 10612 10618 10627 10634 10641 10648 10655 10660 10663 10669 10672 10677 10684 10686 10689 10692 10696 10700 10704 10709 10714 10719 10723 10723 10722 10721 10721 10724 10726 10729 10731 10733 10735 10738 10739 10741 10743
10372 10373 10373 10375 10376 10375 10377 10380 10382 10384 10390 10394 10393 10397 10401 10395 10402 10408 10406 10412 10407 10404 10430 10459 10469 10454 10459 10518 10552 10543 10546 10554 10562 10568 10566 10571 10574 10569 10571 10575 10578 10580 10578 10580 10582 10585 10588 10592 10597 10602 10610 10618 10624 10631 10639 10644 10649 10653 10658 10662 10667 10673 10676 10680 10684 10687 10691 10694 10700 10707 10710 10713 10713 10712 10713 10715 10718 10719 10720 10723 10725 10727 10730 10731 10734 10736
10361 10360 10359 10360 10362 10361 10364 10369 10370 10369 10374 10378 10378 10380 10379 10377 10386 10388 10389 10394 10385 10397 10435 10454 10456 10438 10426 10480 10530 10527 10529 10539 10540 10545 10548 10550 10553 10551 10552 10553 10554 10556 10558 10562 10565 10569 10574 10580 10589 10595 10603 10610 10614 10622 10629 10632 10637 10642 10647 10652 10657 10662 10666 10670 10674 10678 10682 10686 10692 10698 10700 10703 10704 10703 10705 10709 10711 10711 10712 10714 10715 10718 10722 10724 10727 10729
10350 10347 10344 10346 10349 10349 10351 10356 10356 10354 10357 10362 10364 10363 10360 10363 10368 10369 10376 10379 10376 10397 10430 10436 10427 10405 10395 10450 10506 10511 10516 10523 10518 10521 10527 10530 10533 10532 10530 10528 10529 10536 10543 10549 10553 10559 10566 10575 10583 10588 10593 10600 10605 10613 10618 10620 10626 10633 10637 10641 10646 10651 10656 10658 10663 10668 10673 10677 10683 10687 10690 10692 10693 10694 10698 10701 10702 10703 10703 10704 10706 10710 10714 10716 10718 10721
10337 10333 10331 10333 10336 10336 10337 10341 10342 10342 10343 10345 10350 10348 10343 10348 10351 10355 10367 10368 10366 10386 10408 10408 10392 10373 10379 10436 10493 10504 10499 10496 10495 10503 10506 10508 10510 10507 10506 10510 10516 10525 10532 10539 10546 10551 10560 10568 10574 10579 10584 10588 10593 10599 10605 10609 10615 10622 10626 10630 10635 10640 10642 10646 10653 10658 10662 10667 10672 10675 10678 10680 10682 10686 10690 10692 10694 10694 10695 10695 10698 10701 10704 10706 10710 10713
10322 10321 10318 10317 10322 10324 10323 10326 10328 10330 10330 10330 10334 10331 10330 10338 10339 10343 10354 10351 10352 10369 10383 10379 10366 10363 10386 10437 10480 10485 10474 10469 10475 10487 10485 10479 10483 10489 10496 10503 10508 10514 10520 10528 10537 10542 10550 10558 10562 10568 10572 10574 10578 10582 10588 10596 10602 10609 10615 10618 10623 10627 10630 10635 10641 10647 10652 10657 10660 10663 10667 10670 10673 10676 10680 10683 10684 10686 10686 10687 10689 10692 10695 10698 10701 10703
10307 10310 10306 10300 10305 10309 10309 10313 10313 10315 10318 10317 10318 10316 10321 10330 10324 10322 10333 10337 10339 10348 10357 10360 10359 10369 10392 10425 10452 10454 10453 10457 10456 10462 10463 10459 10468 10479 10486 10492 10492 10498 10506 10513 10522 10528 10535 10542 10548 10554 10557 10560 10563 10566 10573 10581 10588 10596 10603 10606 10610 10614 10618 10624 10631 10637 10642 10645 10648 10652 10658 10661 10664 10666 10669 10673 10675 10676 10676 10676 10678 10683 10687 10690 10692 10693
10292 10298 10296 10289 10290 10292 10294 10298 10298 10301 10304 10302 10304 10306 10309 10312 10304 10302 10315 10326 10323 10324 10341 10354 10357 10369 10380 10399 10425 10430 10432 10439 10434 10439 10448 10450 10459 10462 10464 10473 10476 10479 10487 10493 10501 10510 10517 10524 10530 10536 10541 10544 10548 10551 10558 10566 10573 10583 10590 10594 10598 10601 10606 10614 10621 10627 10629 10633 10637 10642 10647 10650 10653 10656 10660 10663 10665 10665 10665 10665 10669 10674 10679 10681 10683 10683
10275 10284 10286 10279 10277 10277 10277 10282 10285 10287 10287 10287 10293 10296 10292 10290 10290 10292 10299 10309 10307 10308 10335 10351 10349 10358 10364 10378 10404 10407 10407 10420 10422 10427 10434 10436 10444 10445 10444 10454 10460 10463 10468 10472 10481 10490 10497 10504 10509 10516 10522 10527 10533 10538 10543 10550 10558 10567 10576 10581 10585 10588 10594 10601 10608 10613 10616 10621 10626 10631 10636 10639 10643 10646 10649 10652 10654 10653 10654 10657 10660 10665 10669 10672 10672 10673
10257 10268 10275 10270 10265 10263 10261 10265 10272 10271 10268 10272 10279 10281 10277 10274 10278 10281 10280 10290 10298 10301 10324 10340 10336 10342 10350 10362 10381 10384 10391 10408 10411 10411 10416 10419 10427 10430 10430 10435 10440 10446 10450 10453 10460 10467 10476 10483 10488 10496 10503 10510 10517 10523 10528 10534 10541 10551 10559 10567 10572 10576 10581 10587 10593 10600 10604 10609 10613 10618 10623 10627 10631 10634 10637 10640 10643 10644 10646 10649 10651 10655 10658 10661 10662 10664
10240 10247 10260 10260 10251 10248 10250 10252 10257 10254 10248 10253 10263 10267 10264 10261 10265 10270 10267 10275 10286 10293 10309 10324 10323 10327 10335 10346 10359 10368 10379 10390 10391 10394 10397 10401 10408 10412 10416 10419 10422 10428 10433 10435 10440 10446 10455 10463 10469 10476 10484 10492 10501 10507 10514 10519 10526 10534 10542 10550 10559 10564 10568 10573 10580 10586 10591 10595 10600 10604 10609 10614 10619 10623 10626 10629 10632 10636 10639 10640 10642 10645 10648 10651 10652 10654
10222 10225 10240 10249 10240 10237 10240 10237 10236 10237 10234 10237 10247 10254 10254 10250 10252 10255 10256 10262 10270 10278 10294 10306 10309 10314 10324 10334 10343 10353 10363 10369 10374 10379 10379 10383 10391 10395 10400 10406 10408 10412 10417 10420 10423 10428 10436 10444 10450 10457 10464 10474 10483 10490 10498 10504 10510 10517 10525 10534 10543 10550 10555 10560 10566 10571 10577 10581 10586 10591 10596 10601 10606 10611 10615 10618 10622 10627 10630 10632 10634 10636 10639 10641 10642 10645
10204 10206 10219 10233 10232 10230 10228 10219 10216 10224 10227 10225 10230 10238 10240 10237 10238 10238 10244 10255 10256 10259 10276 10289 10294 10305 10315 10322 10329 10336 10346 10352 10357 10362 10363 10366 10373 10378 10383 10389 10394 10397 10400 10405 10409 10412 10418 10426 10433 10439 10446 10456 10465 10473 10481 10488 10494 10501 10509 10518 10526 10534 10541 10546 10551 10557 10562 10568 10573 10579 10584 10588 10593 10598 10604 10608 10613 10617 10620 10622 10625 10627 10629 10631 10632 10634
10185 10187 10201 10215 10220 10219 10216 10207 10201 10207 10214 10213 10215 10223 10222 10220 10225 10224 10233 10247 10239 10236 10257 10270 10278 10294 10305 10309 10314 10321 10328 10334 10339 10345 10348 10350 10354 10361 10366 10371 10377 10383 10387 10391 10395 10398 10402 10408 10416 10423 10430 10439 10448 10456 10463 10471 10479 10485 10493 10502 10510 10518 10525 10531 10537 10543 10549 10555 10561 10566 10571 10575 10581 10587 10592 10598 10602 10606 10610 10612 10615 10616 10619 10621 10622 10624
10166 10170 10184 10196 10202 10206 10204 10196 10187 10187 10195 10197 10200 10205 10203 10206 10213 10209 10217 10232 10223 10222 10244 10254 10262 10283 10296 10297 10302 10308 10311 10315 10322 10328 10333 10335 10338 10343 10350 10356 10363 10369 10375 10379 10383 10386 10389 10393 10400 10407 10414 10423 10431 10439 10445 10453 10461 10468 10476 10485 10494 10503 10510 10516 10522 10527 10534 10541 10547 10553 10558 10563 10568 10574 10580 10586 10591 10594 10598 10601 10603 10606 10608 10610 10612 10615
10149 10154 10167 10177 10183 10190 10190 10183 10174 10169 10172 10177 10183 10187 10188 10195 10198 10194 10203 10211 10208 10221 10236 10233 10244 10271 10284 10285 10289 10294 10296 10299 10305 10311 10315 10319 10323 10327 10333 10340 10347 10354 10361 10366 10369 10374 10377 10380 10385 10391 10398 10406 10415 10422 10429 10437 10444 10451 10459 10468 10477 10486 10495 10502 10507 10511 10517 10524 10531 10538 10544 10549 10555 10561 10567 10573 10577 10582 10585 10588 10592 10594 10597 10599 10602 10606
10131 10138 10150 10157 10162 10172 10174 10168 10160 10152 10149 10157 10168 10172 10174 10180 10180 10180 10189 10190 10195 10219 10223 10210 10227 10257 10270 10271 10272 10277 10282 10284 10287 10291 10297 10303 10307 10312 10318 10325 10332 10338 10344 10350 10356 10360 10364 10368 10372 10376 10382 10389 10398 10406 10413 10421 10428 10435 10443 10452 10460 10469 10478 10486 10491 10495 10501 10507 10515 10522 10528 10535 10541 10547 10553 10558 10563 10568 10572 10576 10580 10582 10585 10589 10592 10595
10111 10123 10136 10139 10144 10157 10158 10151 10146 10138 10131 10138 10152 10157 10158 10164 10166 10166 10174 10177 10187 10204 10202 10196 10214 10241 10255 10255 10251 10258 10266 10266 10269 10273 10278 10287 10294 10299 10306 10311 10316 10322 10327 10333 10341 10346 10352 10356 10360 10363 10367 10372 10379 10389 10397 10405 10413 10421 10428 10436 10444 10452 10461 10469 10475 10481 10486 10492 10499 10506 10512 10519 10525 10531 10538 10544 10549 10555 10559 10564 10568 10570 10574 10577 10580 10584
10094 10109 10125 10127 10131 10140 10140 10137 10133 10123 10117 10123 10133 10140 10143 10148 10151 10153 10161 10170 10174 10177 10184 10193 10203 10221 10239 10238 10230 10238 10245 10245 10252 10257 10261 10272 10281 10287 10294 10298 10300 10305 10311 10317 10324 10332 10339 10344 10348 10351 10354 10356 10362 10371 10381 10389 10397 10406 10414 10421 10429 10436 10444 10452 10460 10466 10471 10477 10484 10490 10497 10503 10509 10515 10522 10529 10535 10541 10546 10551 10555 10558 10561 10564 10568 10572
10078 10094 10111 10114 10117 10123 10122 10121 10117 10108 10105 10109 10113 10122 10128 10130 10135 10142 10150 10158 10156 10155 10173 10190 10189 10198 10219 10221 10214 10218 10221 10223 10235 10244 10250 10259 10266 10272 10279 10282 10284 10288 10294 10301 10309 10316 10324 10330 10335 10338 10341 10343 10347 10353 10363 10373 10381 10390 10399 10406 10413 10421 10429 10436 10443 10450 10457 10463 10468 10474 10481 10488 10494 10501 10507 10514 10520 10526 10532 10536 10540 10544 10548 10552 10555 10559
10063 10077 10091 10095 10100 10106 10106 10103 10100 10094 10092 10094 10098 10107 10112 10114 10122 10132 10139 10143 10138 10138 10159 10174 10170 10177 10197 10204 10201 10200 10199 10208 10224 10235 10242 10246 10249 10254 10261 10265 10269 10273 10279 10286 10293 10300 10307 10315 10321 10325 10328 10331 10333 10337 10345 10356 10366 10375 10384 10391 10398 10405 10413 10420 10427 10434 10441 10448 10453 10459 10466 10473 10480 10487 10493 10499 10505 10511 10516 10521 10525 10530 10534 10539 10543 10547
10050 10058 10069 10075 10080 10089 10094 10088 10082 10079 10076 10078 10087 10094 10098 10103 10111 10117 10121 10121 10114 10117 10138 10152 10153 10163 10176 10182 10187 10187 10183 10193 10210 10220 10227 10232 10234 10239 10246 10251 10255 10260 10266 10271 10276 10284 10292 10299 10306 10311 10315 10319 10321 10323 10328 10337 10348 10358 10367 10376 10383 10390 10398 10405 10412 10419 10426 10433 10439 10445 10452 10459 10466 10473 10480 10485 10491 10496 10501 10506 10511 10516 10521 10526 10530 10534
10037 10040 10050 10057 10062 10076 10081 10072 10067 10064 10058 10063 10080 10088 10089 10090 10092 10093 10095 10096 10095 10102 10122 10135 10140 10150 10156 10162 10175 10176 10167 10174 10190 10200 10208 10217 10222 10227 10233 10239 10243 10248 10255 10258 10261 10269 10277 10284 10290 10296 10301 10306 10308 10310 10314 10321 10331 10339 10349 10359 10367 10375 10383 10390 10397 10404 10410 10417 10425 10431 10437 10444 10452 10460 10467 10473 10478 10483 10487 10492 10497 10502 10508 10513 10517 10522
10023 10026 10034 10040 10047 10061 10065 10057 10054 10049 10042 10057 10077 10078 10071 10069 10071 10073 10076 10081 10084 10091 10106 10120 10128 10135 10141 10148 10158 10158 10154 10160 10171 10180 10192 10202 10210 10215 10220 10225 10228 10234 10242 10245 10247 10253 10260 10266 10273 10278 10284 10291 10295 10297 10301 10307 10315 10323 10331 10341 10350 10359 10367 10375 10383 10389 10396 10402 10409 10417 10424 10430 10438 10446 10453 10460 10465 10470 10475 10479 10484 10489 10495 10500 10504 10509
10012 10013 10018 10024 10032 10042 10046 10043 10037 10029 10035 10057 10066 10056 10052 10058 10061 10061 10062 10068 10071 10076 10092 10107 10112 10117 10125 10133 10139 10141 10146 10150 10151 10160 10177 10188 10195 10202 10206 10210 10213 10218 10226 10229 10231 10236 10243 10248 10254 10260 10267 10274 10281 10285 10289 10294 10301 10307 10314 10323 10333 10342 10351 10360 10368 10375 10381 10387 10394 10402 10410 10416 10424 10432 10439 10447 10452 10458 10463 10467 10472 10477 10482 10487 10492 10497
10002 10002 10005 10010 10015 10021 10027 10026 10018 10020 10038 10050 10045 10040 10045 10048 10046 10045 10049 10056 10057 10060 10075 10087 10092 10099 10109 10119 10124 10127 10133 10136 10135 10146 10163 10170 10177 10187 10193 10198 10201 10203 10208 10212 10216 10221 10228 10233 10237 10243 10250 10257 10265 10273 10280 10284 10288 10293 10299 10306 10314 10325 10334 10343 10352 10360 10366 10373 10379 10387 10395 10402 10410 10417 10425 10433 10439 10445 10451 10455 10460 10465 10470 10475 10480 10484
9990 9989 9991 9996 10000 10004 10008 10009 10008 10018 10032 10032 10028 10034 10035 10029 10028 10031 10035 10040 10040 10043 10057 10070 10079 10089 10098 10106 10110 10111 10118 10125 10127 10134 10141 10148 10161 10174 10181 10186 10189 10189 10191 10196 10202 10208 10214 10220 10224 10228 10235 10243 10250 10260 10271 10276 10276 10279 10286 10291 10297 10307 10318 10327 10336 10344 10352 10359 10365 10372 10380 10387 10395 10403 10411 10419 10425 10432 10438 10443 10448 10453 10457 10462 10466 10471
9977 9977 9978 9981 9987 9991 9992 9996 9999 10008 10019 10022 10021 10023 10017 10011 10014 10015 10018 10026 10028 10031 10046 10060 10069 10077 10085 10091 10094 10097 10105 10114 10117 10116 10117 10130 10149 10161 10166 10170 10173 10175 10177 10182 10189 10196 10201 10206 10212 10216 10222 10229 10237 10246 10257 10265 10266 10267 10271 10278 10284 10291 10300 10310 10320 10328 10337 10345 10352 10359 10366 10373 10381 10388 10396 10404 10410 10417 10423 10429 10435 10440 10445 10449 10453 10458
9961 9963 9965 9967 9973 9979 9982 9985 9990 9999 10013 10016 10010 10004 9997 9993 9995 9997 10004 10016 10020 10024 10036 10049 10054 10060 10066 10072 10078 10084 10091 10099 10102 10097 10099 10117 10137 10143 10147 10154 10159 10163 10168 10172 10176 10183 10190 10195 10200 10207 10212 10218 10224 10232 10240 10249 10255 10256 10257 10263 10271 10277 10283 10292 10303 10312 10321 10330 10337 10344 10352 10359 10366 10374 10381 10389 10395 10401 10408 10414 10420 10426 10431 10436 10440 10445
9943 9947 9951 9954 9962 9971 9974 9975 9981 9993 10003 10002 9995 9986 9975 9973 9980 9985 9994 10009 10017 10018 10022 10029 10034 10038 10043 10053 10064 10072 10077 10082 10085 10083 10088 10106 10120 10123 10129 10141 10148 10154 10160 10162 10163 10169 10177 10184 10189 10196 10202 10206 10211 10218 10224 10232 10241 10245 10247 10250 10256 10264 10270 10276 10284 10294 10304 10313 10321 10329 10337 10345 10352 10359 10367 10375 10381 10387 10393 10399 10405 10411 10417 10422 10427 10432
9928 9932 9936 9940 9951 9963 9963 9963 9972 9983 9989 9989 9981 9966 9955 9957 9966 9973 9988 10008 10013 10003 9999 10004 10011 10019 10028 10043 10056 10061 10063 10067 10071 10074 10080 10091 10099 10105 10116 10128 10135 10142 10147 10151 10152 10155 10163 10172 10177 10182 10187 10192 10198 10203 10209 10217 10225 10231 10237 10240 10243 10250 10257 10262 10268 10277 10287 10296 10305 10313 10321 10330 10338 10345 10353 10360 10367 10373 10380 10386 10392 10398 10403 10409 10414 10419
9915 9920 9924 9927 9939 9951 9952 9954 9964 9972 9976 9976 9964 9947 9940 9947 9955 9967 9987 10001 9992 9977 9977 9987 9998 10009 10021 10035 10045 10047 10048 10053 10061 10066 10070 10074 10081 10092 10104 10112 10119 10128 10134 10139 10141 10143 10149 10157 10164 10168 10173 10178 10184 10190 10196 10203 10209 10216 10225 10232 10235 10237 10242 10248 10255 10261 10269 10279 10288 10297 10305 10314 10323 10331 10339 10347 10353 10360 10367 10373 10379 10385 10390 10395 10401 10407
9904 9908 9913 9916 9926 9937 9940 9945 9956 9963 9966 9964 9948 9932 9930 9939 9951 9965 9975 9975 9965 9960 9968 9981 9991 10001 10014 10026 10032 10034 10036 10042 10051 10055 10058 10061 10068 10078 10088 10096 10105 10114 10121 10126 10130 10132 10136 10143 10150 10155 10160 10165 10170 10177 10182 10188 10195 10202 10210 10220 10226 10227 10228 10234 10241 10247 10255 10263 10271 10281 10290 10298 10306 10315 10323 10332 10340 10347 10353 10359 10366 10372 10377 10383 10389 10395
9893 9895 9901 9908 9918 9925 9927 9936 9950 9956 9954 9944 9927 9920 9927 9935 9943 9949 9950 9949 9950 9953 9961 9973 9980 9988 10003 10014 10018 10019 10024 10030 10037 10043 10047 10051 10057 10064 10073 10082 10090 10098 10106 10113 10118 10121 10124 10129 10135 10142 10147 10152 10157 10163 10168 10174 10181 10188 10196 10205 10213 10217 10219 10221 10226 10233 10240 10248 10256 10265 10273 10282 10291 10299 10307 10317 10325 10332 10339 10346 10352 10359 10365 10370 10376 10382
9884 9885 9892 9901 9906 9906 9912 9928 9939 9937 9932 9924 9915 9916 9925 9927 9925 9928 9932 9936 9940 9945 9954 9964 9968 9975 9990 10001 10004 10008 10014 10017 10023 10030 10035 10040 10045 10051 10059 10067 10074 10083 10091 10098 10104 10109 10111 10116 10122 10127 10133 10139 10143 10149 10155 10161 10167 10174 10181 10189 10198 10205 10208 10211 10215 10219 10225 10233 10241 10249 10257 10265 10274 10283 10291 10300 10309 10318 10325 10332 10339 10345 10352 10358 10364 10370
9876 9877 9881 9885 9888 9890 9901 9918 9924 9920 9920 9920 9914 9911 9915 9914 9913 9916 9921 9925 9930 9939 9950 9955 9958 9967 9980 9989 9993 9999 10002 10005 10011 10018 10023 10028 10034 10040 10046 10052 10059 10067 10075 10082 10089 10095 10099 10103 10108 10112 10119 10125 10130 10135 10142 10148 10154 10160 10167 10174 10183 10190 10196 10200 10204 10207 10211 10217 10226 10234 10241 10249 10257 10266 10275 10284 10292 10301 10310 10318 10325 10332 10338 10345 10352 10358
9865 9865 9865 9870 9878 9885 9893 9907 9914 9913 9912 9911 9904 9899 9899 9901 9902 9905 9909 9914 9921 9932 9942 9946 9949 9958 9968 9976 9981 9985 9989 9993 9999 10004 10010 10017 10023 10029 10033 10038 10044 10051 10059 10068 10075 10082 10087 10091 10095 10099 10105 10111 10117 10122 10128 10135 10141 10147 10153 10159 10167 10175 10182 10187 10191 10196 10199 10203 10209 10218 10226 10233 10241 10249 10258 10267 10276 10284 10293 10302 10311 10318 10325 10332 10339 10345
9855 9855 9856 9862 9872 9878 9884 9894 9901 9901 9900 9896 9893 9890 9887 9887 9892 9897 9901 9905 9910 9921 9932 9936 9939 9945 9955 9962 9968 9972 9977 9982 9986 9991 9998 10005 10011 10017 10021 10025 10030 10037 10045 10053 10061 10069 10075 10080 10083 10087 10091 10097 10103 10109 10115 10121 10128 10134 10139 10144 10151 10159 10167 10173 10177 10182 10187 10191 10196 10201 10209 10217 10225 10233 10241 10250 10259 10268 10276 10285 10295 10303 10310 10318 10325 10331
9846 9847 9849 9856 9863 9869 9875 9881 9885 9889 9892 9887 9881 9879 9878 9878 9882 9887 9890 9894 9900 9911 9923 9927 9929 9934 9942 9948 9954 9958 9962 9967 9972 9979 9986 9992 9999 10005 10009 10013 10018 10024 10030 10038 10046 10054 10061 10067 10071 10075 10078 10082 10089 10095 10101 10108 10114 10120 10125 10130 10136 10144 10151 10158 10163 10168 10173 10178 10183 10188 10193 10200 10208 10217 10225 10233 10242 10251 10259 10268 10277 10286 10294 10301 10309 10316
9836 9838 9843 9850 9855 9858 9862 9866 9870 9877 9881 9876 9869 9867 9867 9869 9873 9876 9880 9885 9891 9903 9916 9921 9922 9926 9930 9933 9937 9941 9946 9952 9959 9966 9972 9978 9985 9991 9997 10002 10007 10011 10016 10023 10030 10038 10046 10053 10058 10062 10065 10069 10074 10080 10087 10094 10100 10106 10112 10116 10122 10128 10135 10142 10149 10154 10158 10164 10170 10175 10180 10185 10191 10200 10209 10217 10225 10234 10242 10251 10260 10269 10277 10285 10293 10301
9829 9832 9837 9841 9845 9848 9849 9852 9857 9862 9867 9866 9862 9856 9856 9861 9867 9870 9874 9879 9884 9894 9907 9913 9914 9915 9917 9918 9922 9926 9932 9939 9946 9952 9958 9964 9971 9977 9984 9990 9994 9999 10005 10010 10015 10023 10031 10038 10045 10050 10053 10056 10059 10065 10073 10080 10086 10092 10097 10102 10108 10114 10119 10125 10133 10139 10145 10151 10156 10162 10167 10172 10177 10183 10191 10200 10209 10217 10225 10234 10243 10251 10260 10268 10277 10285
9821 9825 9828 9831 9834 9836 9837 9841 9845 9849 9854 9857 9855 9850 9849 9854 9860 9863 9867 9871 9875 9884 9894 9899 9901 9903 9905 9906 9909 9914 9920 9926 9932 9938 9944 9950 9956 9964 9970 9976 9982 9988 9993 9997 10001 10007 10015 10023 10030 10036 10041 10044 10047 10051 10058 10065 10071 10077 10082 10086 10093 10099 10104 10110 10116 10123 10131 10137 10142 10148 10153 10159 10164 10169 10174 10182 10191 10199 10208 10217 10225 10234 10242 10251 10260 10269